Regional Weather Roundup
Issued by NWS Boston, MA

Home | Current Version | Previous Version | Text Only | Print | Product List | Glossary On
Versions: 1 2 3 4 5 6 7 8 9 10 11 12 13 14 15 16 17 18 19 20 21 22 23 24 25 26 27 28 29 30 31 32 33 34 35 36 37 38 39 40 41 42 43 44 45 46 47 48 49 50
000
ASUS41 KBOX 032110
RWRBOX

REGIONAL WEATHER ROUNDUP
NATIONAL WEATHER SERVICE TAUNTON MA
500 PM EDT SUN MAY 03 2015

NOTE:  "FAIR" INDICATES FEW OR NO CLOUDS BELOW 12,000 FEET WITH NO
SIGNIFICANT WEATHER AND/OR OBSTRUCTIONS TO VISIBILITY.  THE FOLLOWING
OBSERVATION LOCATIONS DO NOT REPORT PRESENT WEATHER...PROVINCETOWN...
SMITHFIELD...BLOCK ISLAND...KEENE...AND OXFORD.

MAZALL-032200-
EASTERN MASSACHUSETTS

CITY           SKY/WX    TMP DP  RH WIND       PRES   REMARKS
BOSTON         PTSUNNY   61  47  59 NE3       30.05S
BEVERLY        MOSUNNY   59  44  57 SE6       30.06R
LAWRENCE       PTSUNNY   69  44  40 VRB5      30.05F
BEDFORD        PTSUNNY   71  35  26 E8        30.03R
BLUE HILL        N/A     67  42  40 S14G21    30.05R
NORWOOD        MOSUNNY   67  41  38 S14       30.06R
MARSHFIELD     SUNNY     66  43  42 S14       30.08S
PLYMOUTH       MOSUNNY   58  38  47 S8G18     30.10S
TAUNTON        MOSUNNY   61  40  45 S12       30.09R
NEW BEDFORD    MOSUNNY   55  38  52 S13       30.11R
$$

MAZALL-032200-
CAPE COD AND THE ISLANDS

CITY           SKY/WX    TMP DP  RH WIND       PRES   REMARKS
FALMOUTH       SUNNY     52  41  66 S17       30.12
HYANNIS        SUNNY     52  41  66 S9G20     30.11S
CHATHAM        SUNNY     51  39  63 SW12G20   30.14S
PROVINCETOWN   SUNNY     55  41  58 S17G25    30.10S
NANTUCKET      SUNNY     50  41  71 S10       30.14S
MARTHAS VNYRD  SUNNY    N/A N/A N/A S16       30.13F
$$

MAZALL-032200-
CENTRAL AND WESTERN MASSACHUSETTS

CITY           SKY/WX    TMP DP  RH WIND       PRES   REMARKS
WORCESTER      PTSUNNY   69  40  34 SE13      30.05S
FITCHBURG      PTSUNNY   73  39  29 E5        30.04R
ORANGE         PTSUNNY   75  34  22 S6        30.02S
SPRINGFIELD    PTSUNNY   75  38  25 S2        30.01S
WESTFIELD      PTSUNNY   76  36  23 S6        30.01F
NORTH ADAMS    PTSUNNY   75  38  26 N8        30.03R
PITTSFIELD     MOSUNNY   74  38  27 W10       30.03S
$$

RIZALL-032200-
RHODE ISLAND

CITY           SKY/WX    TMP DP  RH WIND       PRES   REMARKS
PROVIDENCE     MOSUNNY   55  42  61 SE16      30.10R
NEWPORT        MOSUNNY   51  41  68 S14       30.11F
BLOCK ISLAND   SUNNY     52  39  62 S18       30.11S
SMITHFIELD     MOSUNNY   61  39  44 SE7       30.08R
WESTERLY       MOSUNNY   50  43  77 S10       30.12R
$$

CTZALL-032200-
CONNECTICUT

CITY           SKY/WX    TMP DP  RH WIND       PRES   REMARKS
BRADLEY INTL   PTSUNNY   76  37  24 S3        30.01F
HARTFORD       PTSUNNY   74  40  29 S9        30.02F
BRIDGEPORT     MOSUNNY   70  46  42 S15       30.05S
DANBURY        PTSUNNY   73  38  27 SW14      30.05S
GROTON         PTSUNNY   53  44  71 SE10      30.09S
NEW HAVEN      MOSUNNY   66  48  52 S10       30.06S
CHESTER        FAIR      66  45  45 S8        30.08R
MERIDEN        PTSUNNY   73  39  29 S10       30.05S
WILLIMANTIC    MOSUNNY   74  42  31 S15       30.04S
OXFORD         PTSUNNY   72  43  35 S12       30.06R
$$

MEZ002-015-021-024-NHZ003-005-008-011-012-014-VTZ005-008-032200-
NORTHERN NEW ENGLAND

CITY           SKY/WX    TMP DP  RH WIND       PRES   REMARKS
PORTLAND ME    PTSUNNY   57  45  64 S12       30.06S
BANGOR ME      MOSUNNY   65  44  46 S12       30.03S
CONCORD NH     PTSUNNY   77  33  20 S12       30.01S
MANCHESTER NH  PTSUNNY   75  33  21 S12       30.01S
NASHUA NH      PTSUNNY   74  35  24 S9G18     30.03F
PORTSMOUTH NH  NOT AVBL
JAFFREY NH     PTSUNNY   70  36  28 CALM      30.04S
KEENE NH       PTSUNNY   75  34  22 CALM      30.01S
BURLINGTON VT  PTSUNNY   76  35  22 SW7       29.98F
MT. WASHINGTON PTSUNNY   45  27  49 W21         N/A
$$

NYZ052-076-032200-
EASTERN NEW YORK

CITY           SKY/WX    TMP DP  RH WIND       PRES   REMARKS
ALBANY         PTSUNNY   76  37  24 E7        30.01S
NEW YORK CITY  MOSUNNY   71  43  36 S17       30.05S
$$

ANZALL-032200-
MARINE OBSERVATIONS

STATION/POSITION TIME  TEMP    WIND        PRES    VSBY  WAVE
                       AIR SEA DIR/SP/G                  HT/PER
                 (UTC) (F)     (DEG/KT/KT) (MB)    (MI)  (FT/S)
BOSTON BUOY      2050   53 47  160/ 16/ 19   N/A           3/10
BUZZARDS BAY     2100          180/ 18/ 19   N/A
NANTUCKET SOUND  2050   49 47  190/ 12/ 14   N/A           1/ 3
MASS BAY-STELLWA 2004   49 48  160/ 14/ 17   N/A    1 7/8  4/ 8
ISLE OF SHOALS   2100   51     160/ 19/ 20   N/A
S OF BLOCK IS    2008      46                N/A           4/ 8
$$

......................KEY.........................
  SKY/WX - SKY CONDITION/PRESENT WEATHER
  TMP    - TEMPERATURE IN FAHRENHEIT
  DWPT   - DEWPOINT IN FAHRENHEIT
  RH     - RELATIVE HUMIDITY IN PERCENT
  WIND   - DIRECTION AND SPEED IN MPH
  PRES   - MEAN SEA LEVEL PRESSURE IN INCHES OF HG
  WCI    - WIND CHILL INDEX
  VSB    - VISIBILITY IN MILES
  HX     - HEAT INDEX
  TC     - TEMPERATURE IN CELSIUS
  VRB    - VARIABLE WIND DIRECTION
  N/A    - NOT AVAILABLE



USA.gov is the U.S. government's official web portal to all federal, state and local government web resources and services.